WetterOnline ( https://www.wetteronline.de )

Wetter aktuell Kempten

Aktuelles Wetter: Kempten (705m)

6-stündlich | Neueste Meldungen
Ortszeit Temperatur Wetter
So, 29.05. 8:00 7.4° C bedeckt
So, 29.05. 2:00 5.5° C bewölkt
Sa, 28.05. 20:00 13.0° C bewölkt
Sa, 28.05. 14:00 13.5° C bewölkt
Sa, 28.05. 8:00 10.2° C bedeckt
Sa, 28.05. 2:00 10.9° C Regen
Fr, 27.05. 20:00 17.3° C bewölkt
Fr, 27.05. 14:00 20.3° C leicht bewölkt
Ortszeit Temperatur Wetter
So, 29.05. 9:30 10.1° C bewölkt
So, 29.05. 9:20 10.1° C bewölkt
So, 29.05. 9:10 9.6° C bewölkt
So, 29.05. 9:00 9.1° C bewölkt
So, 29.05. 8:50 9.1° C bewölkt
So, 29.05. 8:40 8.6° C bedeckt
So, 29.05. 8:30 8.2° C bedeckt
So, 29.05. 8:00 7.4° C bedeckt
So, 29.05. 7:30 6.4° C bedeckt
So, 29.05. 7:00 5.6° C bewölkt
So, 29.05. 6:30 4.3° C bewölkt
Ortszeit Relative Feuchte Sichtweite
So, 29.05. 8:00 76% 50 km
So, 29.05. 2:00 91% 55 km
Sa, 28.05. 20:00 46% 55 km
Sa, 28.05. 14:00 53% 50 km
Sa, 28.05. 8:00 88% 25 km
Sa, 28.05. 2:00 89% 65 km
Fr, 27.05. 20:00 59% 65 km
Fr, 27.05. 14:00 53% 60 km
Ortszeit Relative Feuchte Sichtweite
So, 29.05. 9:30 69% 55 km
So, 29.05. 9:20 69% -
So, 29.05. 9:10 69% -
So, 29.05. 9:00 72% 65 km
So, 29.05. 8:50 72% -
So, 29.05. 8:40 73% -
So, 29.05. 8:30 73% 50 km
So, 29.05. 8:00 76% 50 km
So, 29.05. 7:30 85% 50 km
So, 29.05. 7:00 88% 50 km
So, 29.05. 6:30 93% 35 km
Ortszeit Niederschlagsmenge Niederschlagsart
So, 29.05. 8:00 0.0 l/m2 in 12 Std. -
So, 29.05. 2:00 0.0 l/m2 in 6 Std. -
Sa, 28.05. 20:00 0.0 l/m2 in 12 Std. -
Sa, 28.05. 14:00 0.0 l/m2 in 6 Std. -
Sa, 28.05. 8:00 2 l/m2 in 12 Std. Regen
Sa, 28.05. 2:00 2 l/m2 in 6 Std. Regen
Fr, 27.05. 20:00 0.0 l/m2 in 12 Std. -
Fr, 27.05. 14:00 0.0 l/m2 in 6 Std. -
Ortszeit Niederschlagsmenge Niederschlagsart
So, 29.05. 9:30 0.0 l/m2 in 1 Std. -
So, 29.05. 9:20 keine Meldung -
So, 29.05. 9:10 keine Meldung -
So, 29.05. 9:00 0.0 l/m2 in 1 Std. -
So, 29.05. 8:50 keine Meldung -
So, 29.05. 8:40 keine Meldung -
So, 29.05. 8:30 0.0 l/m2 in 1 Std. -
So, 29.05. 8:00 0.0 l/m2 in 1 Std. -
So, 29.05. 7:30 0.0 l/m2 in 1 Std. -
So, 29.05. 7:00 0.0 l/m2 in 1 Std. -
So, 29.05. 6:30 0.0 l/m2 in 1 Std. -
Ortszeit Stärke Spitze Richtung
km/h Bft. km/h Grad Sektor
So, 29.05. 8:00 4 1 11 30° NO
So, 29.05. 2:00 4 1 14 140° SO
Sa, 28.05. 20:00 4 1 29 30° NO
Sa, 28.05. 14:00 6 1 17 360° N
Sa, 28.05. 8:00 7 2 18 330° NW
Sa, 28.05. 2:00 4 1 29 180° S
Fr, 27.05. 20:00 11 2 43 320° NW
Fr, 27.05. 14:00 13 3 35 270° W
Ortszeit Stärke Spitze Richtung
km/h Bft. km/h Grad Sektor
So, 29.05. 9:30 6 1 11 350° N
So, 29.05. 9:20 6 1 - 350° N
So, 29.05. 9:10 4 1 - 360° N
So, 29.05. 9:00 6 1 15 320° NW
So, 29.05. 8:50 6 1 - 320° NW
So, 29.05. 8:40 7 2 - 330° NW
So, 29.05. 8:30 4 1 11 330° NW
So, 29.05. 8:00 4 1 11 30° NO
So, 29.05. 7:30 0 0 4 - -
So, 29.05. 7:00 4 1 7 100° O
So, 29.05. 6:30 2 1 6 100° O
Ortszeit Untergrenze Bedeckung Gattung
total tief tief mittel hoch
So, 29.05. 8:00 2400 m 8/8 8/8 - - -
So, 29.05. 2:00 2400 m 7/8 7/8 - - -
Sa, 28.05. 20:00 1500 m 7/8 6/8 - - -
Sa, 28.05. 14:00 1020 m 7/8 7/8 - - -
Sa, 28.05. 8:00 210 m 8/8 8/8 - - -
Sa, 28.05. 2:00 1500 m 8/8 8/8 - - -
Fr, 27.05. 20:00 1200 m 7/8 7/8 - - -
Fr, 27.05. 14:00 1140 m 3/8 3/8 - - -
Ortszeit Bedeckungsgrad in Achtel und Wolkenuntergrenze
So, 29.05. 9:30 7(2700m)
So, 29.05. 9:20 7(2700m)
So, 29.05. 9:10 7
So, 29.05. 9:00 7(2400m)
So, 29.05. 8:50 7(2400m)
So, 29.05. 8:40 8
So, 29.05. 8:30 7(2400m) 8(2700m)
So, 29.05. 8:00 8(2400m)
So, 29.05. 7:30 8(2400m) 8(4500m)
So, 29.05. 7:00 7(2400m) 8(4500m)
So, 29.05. 6:30 7(2400m)
Ortszeit Luftdruck NN (hPa) Tendenz (hPa in 3 Std.)
So, 29.05. 8:00 1012 - 0,2
So, 29.05. 2:00 1016 - 1,8
Sa, 28.05. 20:00 1016 - 0,4
Sa, 28.05. 14:00 1018 - 1,2
Sa, 28.05. 8:00 1021 + 0,4
Sa, 28.05. 2:00 1021 - 0,8
Fr, 27.05. 20:00 1019 + 0,3
Fr, 27.05. 14:00 1019 - 1,1
Ortszeit Luftdruck NN (hPa) Tendenz (hPa in 3 Std.)
So, 29.05. 9:30 1011 + 0,3
So, 29.05. 9:20 1011 keine Meldung
So, 29.05. 9:10 1011 keine Meldung
So, 29.05. 9:00 1011 - 0,1
So, 29.05. 8:50 1011 keine Meldung
So, 29.05. 8:40 1012 keine Meldung
So, 29.05. 8:30 1012 - 0,1
So, 29.05. 8:00 1012 - 0,2
So, 29.05. 7:30 1012 - 0,5
So, 29.05. 7:00 1012 - 1,1
So, 29.05. 6:30 1013 - 1,8
Ortszeit Schneehöhe (cm)
So, 29.05. 8:00 0
So, 29.05. 2:00 0
Sa, 28.05. 20:00 0
Sa, 28.05. 14:00 0
Sa, 28.05. 8:00 0
Sa, 28.05. 2:00 0
Fr, 27.05. 20:00 0
Fr, 27.05. 14:00 0
Ortszeit Schneehöhe (cm)
So, 29.05. 9:30 0
So, 29.05. 9:20 0
So, 29.05. 9:10 0
So, 29.05. 9:00 0
So, 29.05. 8:50 0
So, 29.05. 8:40 0
So, 29.05. 8:30 0
So, 29.05. 8:00 0
So, 29.05. 7:30 0
So, 29.05. 7:00 0
So, 29.05. 6:30 0
Link zu dieser Seite / Seite empfehlen

Das Wetter in ...